Hourly Data Report for November 15, 2010

HALIFAX STANFIELD INT'L A
NOVA SCOTIA

44°52'48.060" N
63°30'00.050" W
145.40 m
8202250
71395
YHZ

Download Data

Hourly Data (November 2010)
Hourly Data Report for November 15, 2010
TIME
LST
Temp Definition
°C
Dew Point Definition
°C
Rel Hum Definition
%
Precip. Amount Definition
mm

Wind Dir Definition
10's deg

Wind Spd Definition
km/h
Visibility Definition
km
Stn Press Definition
kPa
Hmdx Definition


Wind Chill Definition


Weather Definition


00:00 -0.6 -3.2 83   2 6 24.1 100.46   -3 Clear
01:00 -1.0 -3.3 84   1 9 24.1 100.45   -4 Clear
02:00 -1.2 -3.4 85   2 4 24.1 100.47   -3 Clear
03:00 -0.7 -3.7 80   8 7 24.1 100.45   -3 Clear
04:00 -1.0 -4.2 79   9 7 24.1 100.44   -4 Clear
05:00 -0.9 -3.9 80   10 13 24.1 100.45   -5 Clear
06:00 -0.8 -3.8 80     0 24.1 100.44     Mainly Clear
07:00 -1.2 -3.9 82   11 11 24.1 100.48   -5 Mostly Cloudy
08:00 -0.5 -3.3 81   7 4 24.1 100.53   -2 Mostly Cloudy
09:00 1.6 -1.9 78     0 24.1 100.59     Mostly Cloudy
10:00 3.7 0.8 81   11 9 24.1 100.57     Mostly Cloudy
11:00 5.8 1.5 74   16 15 24.1 100.54     Mostly Cloudy
12:00 7.6 1.6 66   14 11 24.1 100.49     Mainly Clear
13:00 7.8 1.4 64   19 7 24.1 100.43     Mainly Clear
14:00 8.2 0.8 60   12 9 24.1 100.41     Mostly Cloudy
15:00 7.9 0.4 59   16 9 24.1 100.39     Mostly Cloudy
16:00 6.3 0.9 68   15 11 24.1 100.42     Mostly Cloudy
17:00 4.1 1.4 83   16 11 24.1 100.40     Mostly Cloudy
18:00 2.6 1.0 89   16 7 24.1 100.42     Mostly Cloudy
19:00 2.5 1.7 94   14 7 24.1 100.45     Mostly Cloudy
20:00 2.7 2.0 95   13 7 24.1 100.51     Mostly Cloudy
21:00 2.5 1.4 92   11 11 24.1 100.44     Mainly Clear
22:00 1.6 0.8 94   15 13 24.1 100.45     Mostly Cloudy
23:00 1.2 0.5 95   16 11 24.1 100.43     Mostly Cloudy

Notes on Data Quality.

Legend

  • E = Estimated
  • M = Missing
  • NA = Not Available*
  • [empty] = Indicates an unobserved value
Date modified: